Weather History for Pittsfield, IL

Change the Weather History Date:

Tuesday, June 4, 2013

  Actual Average (KUIN) Record (KUIN)
Temperature  
Mean Temperature 62 °F 69 °F  
Max Temperature 74 °F 78 °F 98 °F (1934)
Min Temperature 52 °F 59 °F 42 °F (1950)
Degree Days  
Heating Degree Days 2 1  
Month to date heating degree days 6  
Since 1 June heating degree days 6  
Since 1 July heating degree days 5572  
Cooling Degree Days 0 5  
Month to date cooling degree days 19  
Year to date cooling degree days 105  
Since 1 June cooling degree days 19  
Growing Degree Days 12 (Base 50)    
Moisture  
Dew Point 53 °F    
Average Humidity 70    
Maximum Humidity 92    
Minimum Humidity 49    
Precipitation  
Precipitation 0.00 in 0.15 in 2.04 in (1993)
Month to date precipitation 0.60  
Year to date precipitation 14.69  
Sea Level Pressure  
Sea Level Pressure 30.07 in    
Wind  
Wind Speed 4 mph (ESE)    
Max Wind Speed 14 mph    
Max Gust Speed -    
Visibility 10 miles    
Events      
T = Trace of Precipitation, MM = Missing Value Source: NWS Daily Summary

Daily Weather History Graph

Daily Weather History Graph

Search for Another Location

Airport:

Trip Planner

Search our weather history database for the weather conditions in past years. The results will help you decide how hot, cold, wet, or windy it might be!

Date:

Astronomy

Jun. 04, 2013 Rise Set
Actual Time 5:36 AM CDT 8:27 PM CDT
Civil Twilight 5:04 AM CDT 8:59 PM CDT
Nautical Twilight 4:23 AM CDT 9:39 PM CDT
Astronomical Twilight 3:37 AM CDT 10:26 PM CDT
Moon 3:05 AM CDT (6/4) 4:57 PM CDT (6/4)
Length of Visible Light 15h 54m
Length of Day
14h 50m
Waning Crescent, 14% of the Moon is Illuminated
Jun 4
Waning Crescent
Jun 8
New
Jun 16
First Quarter
Jun 23
Full
Jun 29
Last Quarter

Hourly Weather History & Observations

Time (CDT) Temp. Dew Point Humidity Pressure Visibility Wind Dir Wind Speed Gust Speed Precip Events Conditions
12:15 AM 57.4 °F 51.3 °F 80% 30.06 in 10.0 mi East 4.6 mph - N/A   Clear
12:35 AM 57.0 °F 50.9 °F 80% 30.06 in 10.0 mi East 3.5 mph - N/A   Clear
12:55 AM 57.2 °F 50.9 °F 79% 30.06 in 10.0 mi Calm Calm - N/A   Clear
1:15 AM 56.7 °F 50.9 °F 81% 30.06 in 10.0 mi Calm Calm - N/A   Clear
1:35 AM 56.3 °F 50.9 °F 82% 30.06 in 10.0 mi Calm Calm - N/A   Clear
1:55 AM 55.0 °F 50.9 °F 86% 30.07 in 10.0 mi Calm Calm - N/A   Clear
2:15 AM 54.3 °F 50.7 °F 88% 30.07 in 10.0 mi East 3.5 mph - N/A   Clear
2:35 AM 53.8 °F 50.4 °F 88% 30.08 in 10.0 mi Calm Calm - N/A   Clear
2:55 AM 55.2 °F 50.9 °F 85% 30.10 in 10.0 mi Calm Calm - N/A   Clear
3:15 AM 52.9 °F 50.4 °F 91% 30.08 in 10.0 mi Calm Calm - N/A   Clear
3:35 AM 53.1 °F 50.7 °F 92% 30.07 in 10.0 mi East 3.5 mph - N/A   Clear
3:55 AM 54.5 °F 50.9 °F 88% 30.08 in 10.0 mi Calm Calm - N/A   Clear
4:15 AM 53.1 °F 50.4 °F 91% 30.08 in 10.0 mi Calm Calm - N/A   Clear
4:35 AM 52.5 °F 50.0 °F 91% 30.07 in 7.0 mi Calm Calm - N/A   Clear
4:55 AM 52.9 °F 50.2 °F 91% 30.07 in 10.0 mi East 3.5 mph - N/A   Clear
5:15 AM 52.5 °F 49.6 °F 90% 30.06 in 10.0 mi East 3.5 mph - N/A   Clear
5:35 AM 52.2 °F 49.6 °F 91% 30.06 in 10.0 mi ENE 4.6 mph - N/A   Clear
5:55 AM 52.9 °F 50.2 °F 91% 30.08 in 10.0 mi Calm Calm - N/A   Clear
6:15 AM 53.6 °F 50.2 °F 88% 30.09 in 10.0 mi Calm Calm - N/A   Clear
6:35 AM 53.4 °F 51.1 °F 92% 30.09 in 5.0 mi Calm Calm - N/A   Clear
6:55 AM 54.3 °F 51.6 °F 91% 30.09 in 10.0 mi Calm Calm - N/A   Clear
7:15 AM 56.3 °F 52.0 °F 85% 30.08 in 10.0 mi ESE 5.8 mph - N/A   Clear
7:35 AM 58.3 °F 52.3 °F 81% 30.09 in 10.0 mi SE 6.9 mph - N/A   Clear
7:55 AM 59.9 °F 52.2 °F 76% 30.09 in 10.0 mi SE 9.2 mph - N/A   Clear
8:15 AM 60.8 °F 52.2 °F 73% 30.09 in 10.0 mi SE 9.2 mph - N/A   Clear
8:35 AM 62.4 °F 52.9 °F 71% 30.09 in 10.0 mi ESE 9.2 mph - N/A   Clear
8:55 AM 63.5 °F 52.7 °F 68% 30.09 in 10.0 mi SE 9.2 mph - N/A   Clear
9:15 AM 64.4 °F 52.9 °F 66% 30.09 in 10.0 mi SE 9.2 mph - N/A   Clear
9:35 AM 65.3 °F 52.3 °F 63% 30.09 in 10.0 mi SSE 13.8 mph - N/A   Clear
9:55 AM 65.7 °F 53.2 °F 64% 30.09 in 10.0 mi SE 10.4 mph - N/A   Clear
10:15 AM 65.7 °F 52.9 °F 63% 30.09 in 10.0 mi SSE 6.9 mph - N/A   Clear
10:35 AM 66.6 °F 53.8 °F 63% 30.09 in 10.0 mi SE 8.1 mph - N/A   Clear
10:55 AM 67.1 °F 53.8 °F 62% 30.10 in 10.0 mi SSE 8.1 mph - N/A   Clear
11:15 AM 67.3 °F 53.8 °F 62% 30.10 in 10.0 mi South 3.5 mph - N/A   Clear
11:35 AM 67.8 °F 53.8 °F 61% 30.11 in 10.0 mi SSE 4.6 mph - N/A   Clear
11:55 AM 68.9 °F 54.0 °F 59% 30.11 in 10.0 mi Calm Calm - N/A   Clear
12:15 PM 69.1 °F 54.0 °F 58% 30.11 in 10.0 mi NNE 4.6 mph - N/A   Clear
12:35 PM 68.9 °F 53.4 °F 58% 30.11 in 10.0 mi NE 3.5 mph - N/A   Clear
12:55 PM 69.6 °F 54.1 °F 58% 30.11 in 10.0 mi ENE 4.6 mph - N/A   Clear
1:15 PM 71.4 °F 54.9 °F 56% 30.11 in 10.0 mi East 4.6 mph - N/A   Clear
1:35 PM 71.8 °F 54.5 °F 54% 30.10 in 10.0 mi North 3.5 mph - N/A   Scattered Clouds
1:55 PM 70.3 °F 54.3 °F 57% 30.10 in 10.0 mi Calm Calm - N/A   Clear
2:15 PM 72.0 °F 54.7 °F 54% 30.08 in 10.0 mi SE 5.8 mph - N/A   Clear
2:35 PM 71.1 °F 52.3 °F 52% 30.08 in 10.0 mi Calm Calm - N/A   Clear
2:55 PM 71.6 °F 52.2 °F 50% 30.08 in 10.0 mi Calm Calm - N/A   Clear
3:15 PM 72.3 °F 54.7 °F 54% 30.07 in 10.0 mi ESE 8.1 mph - N/A   Clear
3:35 PM 72.9 °F 54.7 °F 53% 30.06 in 10.0 mi East 6.9 mph - N/A   Clear
3:55 PM 72.9 °F 54.5 °F 52% 30.05 in 10.0 mi East 5.8 mph - N/A   Clear
4:15 PM 73.8 °F 54.3 °F 51% 30.05 in 10.0 mi East 8.1 mph - N/A   Clear
4:35 PM 73.9 °F 53.8 °F 49% 30.04 in 10.0 mi ESE 8.1 mph - N/A   Clear
4:55 PM 73.8 °F 55.0 °F 52% 30.04 in 10.0 mi ESE 5.8 mph - N/A   Clear
5:15 PM 73.6 °F 54.1 °F 50% 30.03 in 10.0 mi ESE 8.1 mph - N/A   Clear
5:35 PM 73.6 °F 54.7 °F 51% 30.03 in 10.0 mi East 9.2 mph - N/A   Clear
5:55 PM 72.9 °F 55.2 °F 54% 30.02 in 10.0 mi ESE 11.5 mph - N/A   Clear
6:15 PM 72.3 °F 56.5 °F 57% 30.01 in 10.0 mi SE 10.4 mph - N/A   Clear
6:35 PM 72.0 °F 57.2 °F 60% 30.01 in 10.0 mi SE 8.1 mph - N/A   Clear
6:55 PM 71.6 °F 56.3 °F 58% 30.02 in 10.0 mi SE 11.5 mph - N/A   Clear
7:15 PM 70.5 °F 56.3 °F 61% 30.02 in 10.0 mi SE 11.5 mph - N/A   Clear
7:35 PM 69.6 °F 56.3 °F 63% 30.03 in 10.0 mi SE 8.1 mph - N/A   Clear
7:55 PM 68.9 °F 56.1 °F 64% 30.03 in 10.0 mi SE 9.2 mph - N/A   Clear
8:15 PM 67.8 °F 55.9 °F 66% 30.03 in 10.0 mi ESE 6.9 mph - N/A   Clear
8:35 PM 66.6 °F 55.6 °F 68% 30.03 in 10.0 mi East 4.6 mph - N/A   Clear
8:55 PM 66.2 °F 56.1 °F 70% 30.04 in 10.0 mi East 4.6 mph - N/A   Clear
9:15 PM 65.5 °F 56.3 °F 72% 30.04 in 10.0 mi East 5.8 mph - N/A   Clear
9:35 PM 65.1 °F 57.2 °F 75% 30.04 in 10.0 mi ESE 5.8 mph - N/A   Clear
9:55 PM 64.8 °F 56.7 °F 75% 30.06 in 10.0 mi Calm Calm - N/A   Clear
10:15 PM 65.3 °F 56.3 °F 73% 30.06 in 10.0 mi Calm Calm - N/A   Clear
10:35 PM 63.9 °F 56.5 °F 77% 30.05 in 10.0 mi ESE 3.5 mph - N/A   Clear
10:55 PM 63.5 °F 56.8 °F 79% 30.05 in 10.0 mi East 4.6 mph - N/A   Clear
11:15 PM 64.0 °F 56.3 °F 76% 30.05 in 10.0 mi East 3.5 mph - N/A   Clear
11:35 PM 63.9 °F 56.7 °F 77% 30.06 in 10.0 mi Calm Calm - N/A   Clear
11:55 PM 61.7 °F 56.7 °F 84% 30.05 in 10.0 mi Calm Calm - N/A   Clear